Regional Weather Roundup
Issued by NWS Cleveland, OH

Home | Current Version | Previous Version | Graphics & Text | Print | Product List | Glossary On
Versions: 1 2 3 4 5 6 7 8 9 10 11 12 13 14 15 16 17 18 19 20 21 22 23 24 25 26 27 28 29 30 31 32 33 34 35 36 37 38 39 40 41 42 43 44 45 46 47 48 49 50
000
ASUS41 KCLE 161412
RWRCLE
OHIO REGIONAL WEATHER ROUNDUP
NATIONAL WEATHER SERVICE WILMINGTON, OH
900 AM EST TUE JAN 16 2018

NOTE: "FAIR" INDICATES FEW OR NO CLOUDS BELOW 12,000 FEET WITH NO
SIGNIFICANT WEATHER AND/OR OBSTRUCTIONS TO VISIBILITY.

OHZ001>008-015>018-024>027-034-035-043-044-161500-
   NORTHWEST OHIO

CITY           SKY/WX    TMP DP  RH WIND       PRES   REMARKS
DEFIANCE       CLOUDY     0  -5  79 SW9       30.45R WCI -15
FINDLAY        CLOUDY     5  -2  72 SW13      30.43R WCI -12
TOLEDO EXPRESS LGT SNOW   5   1  83 SW15      30.42S FOG     WCI -13
TOLEDO EXEC    LGT SNOW   7   0  73 SW18      30.43S WCI -12
LIMA           FAIR       0  -4  83 SW9       30.44R WCI -15
$$

OHZ009>014-019>023-028>033-038-089-161500-
   NORTHEAST OHIO

CITY           SKY/WX    TMP DP  RH WIND       PRES   REMARKS
CLE-HOPKINS    MOCLDY     8   1  73 SW14      30.44R WCI  -8
CLE-LAKEFRONT  CLOUDY    10   2  69 SW15      30.42R WCI  -7
CUY CO. ARPT   LGT SNOW  14  -4  44 SW14      30.39R WCI  -1
LORAIN-ELYRIA  CLOUDY     5  -2  72 SW9       30.42R HAZE    WCI  -9
ASHTABULA      LGT SNOW  17  14  88 W5        30.37F FOG     WCI  10
AKRON-CANTON   FLURRIES  13   7  77 W5        30.36S WCI   5
WOOSTER        CLOUDY     8   3  80 W10       30.40R HAZE    WCI  -6
MANSFIELD      CLOUDY     3  -1  83 SW10      30.39R FOG     WCI -12
YOUNGSTOWN     LGT SNOW  22  19  89 CALM      30.33S FOG
$$

OHZ042-051>053-060>062-070>072-077>081-161500-
  SOUTHWEST OHIO

CITY           SKY/WX    TMP DP  RH WIND       PRES   REMARKS
CINC-COVINGTON CLOUDY     7   1  76 W10       30.49R WCI  -8
CINC-LUNKEN    CLOUDY    10   2  69 W9        30.55S WCI  -3
HAMILTON       FAIR       7   0  73 W6        30.54R WCI  -3
DAYTON         FAIR       1  -3  83 W13       30.48R WCI -17
WRIGHT-PAT AFB CLOUDY     4  -4  70 W10       30.48S WCI -11
DAYTON GENERAL FAIR       5  -1  76 W9        30.48R WCI  -9
WILMINGTON     CLOUDY     6   1  80 W7        30.45S WCI  -6
$$

OHZ036-037-039>041-045>050-054>059-063>069-073>076-082>088-161500-
  CENTRAL AND SOUTHEAST OHIO

CITY           SKY/WX    TMP DP  RH WIND       PRES   REMARKS
COLUMBUS       CLOUDY    11   4  73 W13       30.47R WCI  -4
OSU AIRPORT    FAIR       5   0  79 W14G24    30.46R WCI -12
BOLTON FIELD   CLOUDY     7   0  72 W7        30.47R WCI  -5
RICKENBACK AFB CLOUDY     9   3  77 W13       30.48R WCI  -7
NEWARK         CLOUDY    10   3  73 W5        30.44R WCI   2
MARION         CLOUDY     5  -1  76 W12       30.44R HAZE    WCI -11
LANCASTER      CLOUDY    10   4  76 W7        30.46R WCI  -1
ZANESVILLE     LGT SNOW  13   7  77 W9        30.44R WCI   1
NEW PHILLY     CLOUDY    17  10  74 SW7       30.41R WCI   8
$$




USA.gov is the U.S. government's official web portal to all federal, state and local government web resources and services.